Tracking 30107 objects as of 18-Jan-2025
HD Live streaming from Space Station
objects crossing your sky now

OBJECT A

Track OBJECT A now!
10-day predictions


NORAD ID: 49003
Int'l Code: 2021-062A
Perigee: 522.4 km
Apogee: 543.2 km
Inclination: 97.6 °
Period: 95.1 minutes
Semi major axis: 6903 km
RCS: Unknown
Launch date: July 3, 2021
Source: People's Republic of China (PRC)
Launch site: Taiyaun Space Center, China (TSC)
Your satellite tracking list
Your tracking list is empty




NASA's NSSDC Master Catalog

Two Line Element Set (TLE):
1 49003U 21061A   25018.48448152  .00008796  00000-0  49404-3 0  9992
2 49003  97.5716  97.4687 0015091  93.9248 266.3708 15.13459974195673
Source of the keplerian elements: AFSPC